QPF
0.00 0.00 0.00 0.00 0.00 0.00 0.00 0.00 0.00 0.00 0.00 0.00 0.00 0.00 0.00 0.00 0.00 0.00 0.00 0.00 0.01 0.02 0.03 0.04 0.05 0.04 0.03 0.02 0.03 0.06 0.05 0.07 0.09 0.10 0.08 0.07 0.05 0.04 0.04 0.05 0.08 0.10 0.12 0.10
0.00 0.00 0.00 0.00 0.00 0.00 0.00 0.00 0.00 0.00 0.00 0.00 0.00 0.00 0.00 0.00 0.00 0.00 0.01 0.02 0.03 0.05 0.05 0.05 0.07 0.05 0.04 0.04 0.05 0.07 0.12 0.19 0.24 0.25 0.21 0.17 0.13 0.11 0.09 0.10 0.10 0.14 0.17 0.16
0.00 0.00 0.00 0.00 0.00 0.00 0.00 0.00 0.00 0.00 0.00 0.00 0.00 0.00 0.00 0.01 0.02 0.03 0.05 0.06 0.08 0.10 0.09 0.09 0.10 0.10 0.10 0.09 0.09 0.11 0.16 0.24 0.33 0.38 0.41 0.35 0.27 0.21 0.20 0.19 0.19 0.23 0.25 0.23
0.00 0.00 0.00 0.00 0.00 0.00 0.00 0.00 0.00 0.00 0.00 0.00 0.00 0.00 0.00 0.01 0.02 0.04 0.06 0.09 0.11 0.12 0.11 0.12 0.13 0.13 0.14 0.14 0.14 0.18 0.21 0.27 0.34 0.45 0.49 0.43 0.38 0.34 0.32 0.30 0.26 0.25 0.25 0.25
0.00 0.00 0.00 0.00 0.00 0.00 0.00 0.00 0.00 0.00 0.00 0.00 0.00 0.00 0.00 0.01 0.01 0.02 0.04 0.05 0.07 0.08 0.09 0.12 0.13 0.13 0.12 0.14 0.17 0.23 0.33 0.42 0.44 0.50 0.53 0.52 0.47 0.38 0.31 0.28 0.27 0.30 0.33 0.31
0.00 0.00 0.00 0.00 0.00 0.00 0.00 0.00 0.00 0.00 0.00 0.00 0.00 0.00 0.00 0.01 0.01 0.01 0.03 0.04 0.06 0.07 0.09 0.11 0.12 0.13 0.15 0.18 0.22 0.28 0.40 0.51 0.57 0.60 0.62 0.56 0.48 0.43 0.36 0.30 0.34 0.38 0.38 0.34
0.00 0.00 0.00 0.00 0.00 0.00 0.00 0.00 0.00 0.00 0.00 0.00 0.00 0.00 0.00 0.01 0.01 0.01 0.02 0.04 0.06 0.07 0.08 0.10 0.11 0.14 0.17 0.23 0.30 0.36 0.38 0.43 0.46 0.46 0.44 0.39 0.35 0.33 0.32 0.31 0.34 0.37 0.35 0.30
0.00 0.00 0.00 0.00 0.00 0.00 0.00 0.00 0.00 0.00 0.00 0.00 0.00 0.00 0.01 0.01 0.01 0.02 0.02 0.03 0.05 0.06 0.06 0.08 0.10 0.15 0.18 0.25 0.32 0.32 0.31 0.33 0.36 0.37 0.37 0.39 0.40 0.37 0.35 0.36 0.36 0.34 0.31 0.26
0.00 0.00 0.00 0.00 0.00 0.00 0.00 0.00 0.00 0.00 0.00 0.00 0.00 0.01 0.02 0.02 0.02 0.02 0.02 0.02 0.03 0.04 0.04 0.05 0.07 0.12 0.21 0.28 0.31 0.31 0.34 0.35 0.33 0.34 0.36 0.39 0.39 0.38 0.36 0.38 0.34 0.27 0.21 0.16
0.01 0.00 0.00 0.00 0.00 0.00 0.00 0.00 0.00 0.00 0.00 0.00 0.00 0.00 0.00 0.01 0.01 0.01 0.01 0.01 0.01 0.01 0.02 0.03 0.05 0.09 0.17 0.24 0.30 0.34 0.35 0.37 0.37 0.36 0.36 0.36 0.34 0.33 0.34 0.32 0.26 0.18 0.14 0.10
0.00 0.00 0.00 0.00 0.00 0.00 0.00 0.00 0.00 0.00 0.00 0.00 0.00 0.00 0.00 0.00 0.00 0.01 0.01 0.01 0.01 0.02 0.03 0.04 0.06 0.09 0.12 0.16 0.20 0.24 0.32 0.37 0.35 0.32 0.33 0.35 0.32 0.30 0.26 0.21 0.15 0.11 0.08 0.06
0.00 0.00 0.00 0.00 0.00 0.00 0.00 0.00 0.00 0.00 0.00 0.00 0.00 0.00 0.00 0.00 0.00 0.00 0.01 0.01 0.02 0.02 0.03 0.06 0.08 0.09 0.10 0.11 0.13 0.16 0.22 0.30 0.37 0.36 0.33 0.31 0.26 0.20 0.14 0.10 0.06 0.04 0.03 0.02
0.00 0.00 0.00 0.00 0.00 0.00 0.00 0.00 0.00 0.00 0.00 0.00 0.00 0.00 0.00 0.00 0.00 0.00 0.01 0.02 0.02 0.03 0.05 0.08 0.09 0.10 0.11 0.10 0.11 0.12 0.15 0.21 0.29 0.33 0.31 0.26 0.20 0.14 0.08 0.04 0.02 0.01 0.01 0.00
0.00 0.00 0.00 0.00 0.00 0.00 0.00 0.00 0.00 0.00 0.00 0.00 0.00 0.00 0.00 0.00 0.00 0.00 0.01 0.02 0.04 0.06 0.07 0.08 0.08 0.09 0.08 0.07 0.08 0.09 0.11 0.16 0.21 0.25 0.26 0.23 0.17 0.11 0.06 0.02 0.01 0.00 0.00 0.00
0.00 0.00 0.00 0.00 0.00 0.00 0.00 0.00 0.00 0.00 0.00 0.00 0.00 0.00 0.00 0.00 0.00 0.01 0.01 0.03 0.06 0.07 0.07 0.07 0.06 0.06 0.05 0.04 0.04 0.05 0.07 0.11 0.16 0.18 0.20 0.18 0.13 0.09 0.05 0.02 0.01 0.00 0.00 0.00
0.00 0.00 0.00 0.00 0.00 0.00 0.00 0.00 0.00 0.00 0.00 0.00 0.00 0.00 0.00 0.00 0.00 0.01 0.01 0.02 0.04 0.04 0.04 0.04 0.05 0.05 0.03 0.03 0.03 0.03 0.05 0.07 0.10 0.12 0.14 0.14 0.09 0.05 0.03 0.01 0.00 0.00 0.00 0.00
0.00 0.00 0.00 0.00 0.00 0.00 0.00 0.00 0.00 0.00 0.00 0.00 0.00 0.00 0.00 0.00 0.00 0.00 0.00 0.00 0.01 0.01 0.02 0.02 0.02 0.02 0.02 0.01 0.02 0.03 0.04 0.04 0.05 0.06 0.08 0.10 0.11 0.08 0.04 0.02 0.01 0.00 0.00 0.00
0.00 0.00 0.00 0.00 0.00 0.00 0.00 0.00 0.00 0.00 0.00 0.00 0.00 0.00 0.00 0.00 0.00 0.00 0.00 0.00 0.00 0.00 0.01 0.01 0.01 0.01 0.00 0.00 0.01 0.01 0.02 0.02 0.03 0.03 0.04 0.05 0.05 0.04 0.03 0.02 0.01 0.00 0.00 0.00
0.00 0.00 0.00 0.00 0.00 0.00 0.00 0.00 0.00 0.00 0.00 0.00 0.00 0.00 0.00 0.00 0.00 0.00 0.00 0.00 0.00 0.00 0.00 0.00 0.00 0.00 0.00 0.00 0.00 0.01 0.01 0.01 0.02 0.02 0.02 0.03 0.03 0.02 0.01 0.01 0.00 0.00 0.00 0.00
0.00 0.00 0.00 0.00 0.00 0.00 0.00 0.00 0.00 0.00 0.00 0.00 0.00 0.00 0.00 0.00 0.00 0.00 0.00 0.00 0.00 0.00 0.00 0.00 0.00 0.00 0.00 0.00 0.00 0.01 0.01 0.02 0.02 0.02 0.03 0.03 0.02 0.02 0.01 0.00 0.00 0.00 0.00 0.00
0.00 0.00 0.00 0.00 0.00 0.00 0.00 0.00 0.00 0.00 0.00 0.00 0.00 0.00 0.00 0.00 0.00 0.00 0.00 0.00 0.00 0.00 0.00 0.00 0.00 0.00 0.00 0.00 0.00 0.00 0.01 0.01 0.02 0.02 0.02 0.02 0.02 0.01 0.01 0.00 0.00 0.00 0.00 0.00
0.00 0.00 0.00 0.00 0.00 0.00 0.00 0.00 0.00 0.00 0.00 0.00 0.00 0.00 0.00 0.00 0.00 0.00 0.00 0.00 0.00 0.00 0.00 0.00 0.00 0.00 0.00 0.00 0.00 0.00 0.00 0.00 0.01 0.01 0.01 0.01 0.01 0.01 0.00 0.00 0.00 0.00 0.00 0.00
0.00 0.00 0.00 0.00 0.00 0.00 0.00 0.00 0.00 0.00 0.00 0.00 0.00 0.00 0.00 0.00 0.00 0.00 0.00 0.00 0.00 0.00 0.00 0.00 0.00 0.00 0.00 0.00 0.00 0.00 0.00 0.00 0.00 0.00 0.00 0.00 0.00 0.00 0.00 0.00 0.00 0.00 0.00 0.00
0.00 0.00 0.00 0.00 0.00 0.00 0.00 0.00 0.00 0.00 0.00 0.00 0.00 0.00 0.00 0.00 0.00 0.00 0.00 0.00 0.00 0.00 0.00 0.00 0.00 0.00 0.00 0.00 0.00 0.00 0.00 0.00 0.00 0.00 0.00 0.00 0.00 0.00 0.00 0.00 0.00 0.00 0.00 0.00
0.00 0.00 0.00 0.00 0.00 0.00 0.00 0.00 0.00 0.00 0.00 0.00 0.00 0.00 0.00 0.00 0.00 0.00 0.00 0.00 0.00 0.00 0.00 0.00 0.00 0.00 0.00 0.00 0.00 0.00 0.00 0.00 0.00 0.00 0.00 0.00 0.00 0.00 0.00 0.00 0.00 0.00 0.00 0.00
0.00 0.00 0.00 0.00 0.00 0.00 0.00 0.00 0.00 0.00 0.00 0.00 0.00 0.00 0.00 0.00 0.00 0.00 0.00 0.00 0.00 0.00 0.00 0.00 0.00 0.00 0.00 0.00 0.00 0.00 0.00 0.00 0.00 0.00 0.00 0.00 0.00 0.00 0.00 0.00 0.00 0.00 0.00 0.00
MSLP
1013.26 1013.94 1014.42 1014.70 1014.79 1014.75 1014.62 1014.46 1014.29 1014.11 1013.93 1013.71 1013.44 1013.10 1012.71 1012.28 1011.84 1011.43 1011.06 1010.76 1010.53 1010.36 1010.23 1010.12 1010.03 1009.94 1009.88 1009.85 1009.88 1010.00 1010.20 1010.48 1010.82 1011.19 1011.54 1011.85 1012.10 1012.26 1012.36 1012.42 1012.47 1012.54 1012.66 1012.84
1013.64 1014.20 1014.56 1014.73 1014.76 1014.69 1014.60 1014.53 1014.49 1014.47 1014.44 1014.37 1014.22 1013.97 1013.62 1013.20 1012.73 1012.28 1011.86 1011.51 1011.23 1011.00 1010.81 1010.63 1010.45 1010.27 1010.09 1009.96 1009.88 1009.91 1010.05 1010.29 1010.62 1011.00 1011.37 1011.71 1011.96 1012.12 1012.19 1012.21 1012.20 1012.22 1012.30 1012.46
1013.78 1014.20 1014.43 1014.51 1014.50 1014.46 1014.45 1014.51 1014.64 1014.80 1014.94 1015.02 1014.97 1014.79 1014.47 1014.04 1013.55 1013.06 1012.60 1012.21 1011.90 1011.65 1011.43 1011.21 1010.97 1010.71 1010.44 1010.19 1010.01 1009.93 1009.98 1010.16 1010.45 1010.81 1011.19 1011.53 1011.79 1011.95 1012.01 1012.00 1011.96 1011.94 1011.98 1012.12
1013.75 1014.01 1014.12 1014.13 1014.11 1014.14 1014.25 1014.48 1014.80 1015.15 1015.47 1015.67 1015.72 1015.57 1015.25 1014.79 1014.25 1013.71 1013.21 1012.80 1012.47 1012.21 1011.98 1011.75 1011.48 1011.17 1010.82 1010.47 1010.18 1009.98 1009.93 1010.02 1010.24 1010.56 1010.91 1011.25 1011.52 1011.69 1011.75 1011.74 1011.69 1011.65 1011.68 1011.80
1013.64 1013.74 1013.75 1013.72 1013.74 1013.87 1014.14 1014.56 1015.08 1015.61 1016.08 1016.39 1016.48 1016.33 1015.97 1015.43 1014.82 1014.20 1013.65 1013.21 1012.87 1012.62 1012.41 1012.19 1011.92 1011.57 1011.17 1010.73 1010.33 1010.01 1009.83 1009.80 1009.93 1010.18 1010.49 1010.82 1011.09 1011.28 1011.37 1011.38 1011.35 1011.33 1011.36 1011.48
1013.55 1013.52 1013.45 1013.42 1013.51 1013.77 1014.22 1014.83 1015.54 1016.23 1016.81 1017.17 1017.27 1017.07 1016.62 1015.98 1015.26 1014.55 1013.92 1013.44 1013.10 1012.86 1012.68 1012.49 1012.23 1011.87 1011.42 1010.91 1010.40 1009.96 1009.65 1009.49 1009.51 1009.67 1009.93 1010.23 1010.51 1010.73 1010.87 1010.94 1010.96 1010.98 1011.04 1011.18
1013.57 1013.44 1013.34 1013.34 1013.52 1013.92 1014.54 1015.33 1016.19 1017.00 1017.64 1018.02 1018.06 1017.78 1017.21 1016.44 1015.58 1014.76 1014.06 1013.52 1013.17 1012.95 1012.80 1012.64 1012.40 1012.05 1011.57 1011.00 1010.40 1009.84 1009.40 1009.12 1009.01 1009.08 1009.28 1009.55 1009.85 1010.11 1010.32 1010.46 1010.57 1010.66 1010.77 1010.94
1013.72 1013.55 1013.46 1013.52 1013.80 1014.33 1015.09 1016.01 1016.97 1017.85 1018.50 1018.84 1018.80 1018.40 1017.69 1016.78 1015.80 1014.87 1014.08 1013.50 1013.13 1012.92 1012.80 1012.68 1012.47 1012.13 1011.64 1011.03 1010.36 1009.71 1009.15 1008.74 1008.53 1008.51 1008.65 1008.90 1009.21 1009.52 1009.81 1010.04 1010.24 1010.42 1010.61 1010.83
1013.97 1013.82 1013.77 1013.91 1014.29 1014.92 1015.78 1016.77 1017.78 1018.65 1019.26 1019.52 1019.38 1018.86 1018.02 1016.99 1015.90 1014.88 1014.04 1013.43 1013.05 1012.85 1012.75 1012.66 1012.49 1012.17 1011.68 1011.05 1010.34 1009.62 1008.98 1008.48 1008.18 1008.08 1008.17 1008.40 1008.73 1009.09 1009.45 1009.78 1010.07 1010.34 1010.60 1010.87
1014.26 1014.16 1014.19 1014.41 1014.87 1015.58 1016.47 1017.47 1018.44 1019.25 1019.78 1019.93 1019.68 1019.05 1018.12 1017.01 1015.86 1014.81 1013.95 1013.33 1012.96 1012.78 1012.71 1012.65 1012.51 1012.22 1011.75 1011.13 1010.41 1009.66 1008.97 1008.42 1008.06 1007.91 1007.96 1008.18 1008.52 1008.92 1009.34 1009.75 1010.12 1010.47 1010.79 1011.10
1014.49 1014.49 1014.61 1014.91 1015.42 1016.13 1017.01 1017.94 1018.81 1019.50 1019.90 1019.94 1019.59 1018.89 1017.92 1016.80 1015.66 1014.63 1013.80 1013.22 1012.88 1012.74 1012.70 1012.67 1012.56 1012.31 1011.88 1011.30 1010.60 1009.86 1009.18 1008.62 1008.24 1008.07 1008.10 1008.31 1008.65 1009.07 1009.52 1009.98 1010.40 1010.79 1011.16 1011.49
1014.62 1014.73 1014.94 1015.29 1015.81 1016.49 1017.27 1018.08 1018.80 1019.33 1019.58 1019.50 1019.08 1018.36 1017.41 1016.34 1015.28 1014.34 1013.60 1013.10 1012.82 1012.72 1012.72 1012.73 1012.65 1012.44 1012.07 1011.54 1010.90 1010.22 1009.59 1009.06 1008.69 1008.53 1008.55 1008.75 1009.08 1009.50 1009.96 1010.42 1010.86 1011.27 1011.64 1011.97
1014.63 1014.85 1015.13 1015.52 1016.01 1016.59 1017.23 1017.85 1018.38 1018.72 1018.82 1018.64 1018.17 1017.47 1016.59 1015.64 1014.73 1013.93 1013.33 1012.93 1012.73 1012.69 1012.73 1012.77 1012.73 1012.57 1012.26 1011.81 1011.26 1010.67 1010.12 1009.65 1009.34 1009.19 1009.22 1009.41 1009.72 1010.11 1010.55 1010.99 1011.41 1011.80 1012.15 1012.46
1014.59 1014.89 1015.22 1015.60 1016.02 1016.47 1016.92 1017.32 1017.62 1017.76 1017.71 1017.43 1016.95 1016.30 1015.55 1014.76 1014.03 1013.42 1012.97 1012.70 1012.60 1012.61 1012.69 1012.76 1012.75 1012.64 1012.40 1012.04 1011.59 1011.11 1010.66 1010.29 1010.04 1009.94 1009.98 1010.16 1010.44 1010.79 1011.18 1011.57 1011.94 1012.29 1012.60 1012.88
1014.58 1014.94 1015.27 1015.59 1015.90 1016.18 1016.42 1016.59 1016.66 1016.60 1016.39 1016.04 1015.56 1014.99 1014.38 1013.77 1013.24 1012.82 1012.54 1012.40 1012.39 1012.46 1012.56 1012.64 1012.66 1012.59 1012.41 1012.14 1011.80 1011.45 1011.11 1010.85 1010.68 1010.62 1010.69 1010.85 1011.10 1011.41 1011.74 1012.07 1012.39 1012.68 1012.95 1013.19
1014.69 1015.05 1015.35 1015.58 1015.74 1015.84 1015.85 1015.78 1015.62 1015.37 1015.04 1014.63 1014.16 1013.68 1013.20 1012.78 1012.44 1012.20 1012.07 1012.04 1012.10 1012.21 1012.32 1012.41 1012.44 1012.39 1012.27 1012.08 1011.85 1011.61 1011.39 1011.23 1011.14 1011.14 1011.23 1011.39 1011.62 1011.88 1012.16 1012.44 1012.70 1012.95 1013.18 1013.38
1014.98 1015.29 1015.50 1015.61 1015.61 1015.50 1015.30 1015.01 1014.65 1014.23 1013.79 1013.33 1012.89 1012.48 1012.13 1011.86 1011.69 1011.60 1011.59 1011.65 1011.75 1011.87 1011.99 1012.06 1012.09 1012.06 1011.98 1011.86 1011.72 1011.58 1011.47 1011.40 1011.39 1011.45 1011.57 1011.73 1011.94 1012.18 1012.43 1012.67 1012.90 1013.12 1013.33 1013.52
1015.41 1015.62 1015.71 1015.67 1015.49 1015.20 1014.80 1014.32 1013.79 1013.25 1012.72 1012.23 1011.81 1011.47 1011.23 1011.08 1011.03 1011.05 1011.13 1011.24 1011.37 1011.49 1011.59 1011.65 1011.67 1011.65 1011.60 1011.54 1011.47 1011.41 1011.38 1011.40 1011.45 1011.56 1011.71 1011.89 1012.11 1012.34 1012.57 1012.81 1013.04 1013.26 1013.47 1013.67
1015.87 1015.95 1015.89 1015.69 1015.34 1014.88 1014.31 1013.68 1013.03 1012.40 1011.81 1011.31 1010.92 1010.64 1010.48 1010.43 1010.46 1010.55 1010.69 1010.83 1010.97 1011.09 1011.17 1011.22 1011.24 1011.23 1011.21 1011.18 1011.17 1011.18 1011.21 1011.29 1011.40 1011.54 1011.73 1011.94 1012.17 1012.42 1012.68 1012.94 1013.19 1013.44 1013.67 1013.90
1016.23 1016.14 1015.92 1015.56 1015.06 1014.45 1013.75 1013.02 1012.29 1011.61 1011.00 1010.51 1010.15 1009.93 1009.83 1009.84 1009.93 1010.08 1010.24 1010.41 1010.56 1010.68 1010.76 1010.81 1010.84 1010.85 1010.86 1010.87 1010.91 1010.96 1011.05 1011.16 1011.31 1011.49 1011.71 1011.95 1012.21 1012.49 1012.79 1013.10 1013.40 1013.70 1013.98 1014.23
1016.33 1016.07 1015.69 1015.17 1014.53 1013.81 1013.03 1012.23 1011.47 1010.77 1010.18 1009.72 1009.41 1009.23 1009.18 1009.24 1009.37 1009.55 1009.75 1009.94 1010.11 1010.25 1010.36 1010.44 1010.50 1010.55 1010.59 1010.66 1010.73 1010.83 1010.95 1011.09 1011.27 1011.47 1011.71 1011.98 1012.28 1012.60 1012.95 1013.31 1013.68 1014.03 1014.36 1014.66
1016.08 1015.66 1015.11 1014.46 1013.71 1012.90 1012.07 1011.25 1010.49 1009.82 1009.27 1008.85 1008.58 1008.45 1008.44 1008.54 1008.71 1008.92 1009.15 1009.38 1009.59 1009.77 1009.93 1010.06 1010.18 1010.29 1010.40 1010.52 1010.64 1010.77 1010.92 1011.09 1011.28 1011.50 1011.76 1012.05 1012.38 1012.75 1013.14 1013.56 1013.98 1014.39 1014.77 1015.12
1015.47 1014.90 1014.22 1013.45 1012.62 1011.75 1010.90 1010.08 1009.35 1008.72 1008.22 1007.85 1007.63 1007.54 1007.57 1007.70 1007.89 1008.13 1008.40 1008.67 1008.93 1009.18 1009.41 1009.63 1009.84 1010.04 1010.23 1010.41 1010.59 1010.76 1010.94 1011.13 1011.33 1011.56 1011.82 1012.13 1012.49 1012.89 1013.32 1013.78 1014.25 1014.70 1015.12 1015.50
1014.59 1013.90 1013.11 1012.25 1011.35 1010.46 1009.60 1008.81 1008.11 1007.53 1007.08 1006.76 1006.58 1006.52 1006.57 1006.71 1006.92 1007.19 1007.48 1007.80 1008.12 1008.45 1008.77 1009.09 1009.40 1009.70 1009.99 1010.25 1010.50 1010.72 1010.93 1011.14 1011.36 1011.60 1011.87 1012.18 1012.55 1012.97 1013.43 1013.91 1014.41 1014.88 1015.33 1015.72
1013.60 1012.82 1011.95 1011.03 1010.10 1009.19 1008.34 1007.57 1006.91 1006.37 1005.96 1005.67 1005.51 1005.46 1005.51 1005.65 1005.86 1006.13 1006.44 1006.79 1007.17 1007.57 1007.98 1008.40 1008.82 1009.22 1009.60 1009.96 1010.28 1010.56 1010.82 1011.06 1011.29 1011.54 1011.82 1012.15 1012.52 1012.94 1013.41 1013.90 1014.40 1014.89 1015.34 1015.74
1012.70 1011.87 1010.96 1010.01 1009.06 1008.15 1007.31 1006.56 1005.93 1005.41 1005.02 1004.74 1004.57 1004.50 1004.53 1004.64 1004.82 1005.06 1005.37 1005.72 1006.13 1006.57 1007.05 1007.55 1008.06 1008.56 1009.03 1009.47 1009.87 1010.22 1010.53 1010.81 1011.08 1011.35 1011.65 1011.98 1012.36 1012.78 1013.24 1013.73 1014.22 1014.69 1015.13 1015.52
Thickness
5741 5727 5719 5726 5731 5734 5733 5730 5727 5740 5760 5759 5755 5754 5762 5773 5778 5779 5781 5782 5782 5783 5786 5786 5787 5788 5788 5787 5786 5784 5781 5778 5775 5771 5767 5763 5762 5761 5761 5761 5760 5759 5758 5757
5720 5718 5732 5739 5738 5733 5728 5723 5724 5737 5753 5752 5746 5746 5752 5758 5760 5764 5766 5767 5769 5769 5770 5773 5775 5775 5775 5775 5775 5775 5773 5771 5768 5766 5764 5760 5758 5756 5756 5756 5755 5754 5752 5751
5715 5724 5739 5737 5732 5727 5725 5720 5723 5727 5738 5740 5737 5729 5735 5742 5748 5751 5752 5753 5755 5757 5757 5759 5760 5762 5763 5763 5764 5765 5765 5762 5760 5758 5756 5752 5749 5747 5746 5745 5746 5747 5746 5744
5718 5728 5731 5727 5725 5725 5714 5729 5728 5727 5719 5708 5718 5697 5717 5721 5728 5732 5735 5738 5741 5744 5746 5748 5750 5752 5754 5756 5758 5758 5758 5756 5754 5752 5749 5744 5739 5737 5738 5737 5738 5739 5739 5738
5712 5723 5722 5718 5722 5726 5721 5727 5722 5717 5711 5700 5702 5692 5696 5709 5712 5717 5720 5725 5728 5732 5735 5737 5740 5743 5745 5748 5749 5750 5749 5748 5747 5745 5743 5738 5733 5732 5731 5730 5731 5731 5731 5731
5716 5725 5724 5723 5726 5724 5722 5713 5703 5690 5684 5674 5689 5683 5680 5694 5702 5706 5710 5713 5716 5720 5723 5726 5730 5732 5734 5737 5738 5739 5739 5740 5739 5738 5735 5731 5727 5724 5723 5722 5723 5723 5722 5722
5702 5711 5720 5725 5715 5712 5705 5684 5663 5660 5653 5659 5679 5675 5676 5695 5699 5699 5699 5702 5705 5707 5709 5712 5715 5718 5720 5723 5725 5727 5728 5729 5730 5731 5729 5724 5721 5717 5717 5717 5717 5717 5715 5714
5684 5683 5708 5716 5711 5701 5695 5682 5656 5646 5642 5652 5670 5668 5679 5693 5693 5692 5691 5692 5693 5694 5695 5697 5699 5702 5706 5709 5712 5714 5716 5718 5721 5722 5722 5720 5717 5711 5711 5712 5712 5711 5709 5707
5681 5683 5708 5712 5711 5704 5687 5675 5673 5652 5649 5642 5650 5664 5678 5684 5682 5681 5681 5682 5682 5682 5683 5683 5685 5687 5690 5693 5697 5700 5703 5706 5709 5711 5712 5710 5707 5706 5705 5705 5705 5703 5700 5698
5695 5684 5697 5704 5704 5693 5688 5672 5655 5646 5638 5628 5640 5650 5657 5670 5672 5673 5673 5672 5673 5672 5671 5671 5671 5672 5674 5677 5681 5685 5689 5693 5696 5696 5697 5697 5696 5696 5696 5695 5693 5690 5689 5687
5700 5682 5685 5688 5686 5682 5675 5665 5651 5638 5635 5625 5620 5639 5667 5669 5670 5668 5668 5667 5664 5661 5659 5658 5657 5657 5658 5661 5664 5668 5673 5677 5680 5681 5682 5682 5682 5683 5683 5682 5680 5678 5676 5675
5689 5672 5664 5672 5682 5683 5678 5667 5649 5639 5635 5624 5617 5635 5671 5667 5666 5662 5661 5660 5656 5653 5650 5647 5645 5643 5644 5646 5649 5653 5657 5661 5664 5666 5667 5667 5668 5669 5669 5668 5666 5666 5664 5663
5683 5666 5652 5653 5659 5671 5669 5662 5652 5638 5627 5615 5612 5635 5666 5662 5659 5657 5654 5652 5649 5645 5641 5637 5635 5633 5633 5634 5637 5641 5644 5648 5651 5653 5653 5654 5654 5654 5654 5654 5654 5654 5653 5651
5686 5665 5655 5649 5651 5659 5660 5658 5646 5634 5622 5617 5622 5638 5655 5655 5653 5652 5650 5647 5643 5638 5634 5630 5627 5625 5625 5626 5628 5630 5634 5637 5640 5642 5642 5641 5641 5642 5642 5642 5642 5642 5641 5639
5682 5664 5660 5660 5663 5659 5657 5657 5649 5636 5635 5630 5638 5639 5651 5654 5652 5651 5649 5644 5639 5634 5631 5628 5624 5621 5620 5620 5621 5623 5625 5627 5629 5630 5631 5630 5630 5631 5631 5631 5631 5631 5630 5629
5671 5663 5656 5655 5659 5652 5650 5657 5654 5647 5643 5637 5639 5643 5657 5655 5652 5649 5646 5641 5636 5633 5631 5628 5624 5620 5617 5615 5615 5616 5617 5618 5619 5619 5620 5620 5620 5620 5620 5620 5620 5620 5618 5617
5659 5652 5641 5636 5646 5645 5638 5654 5653 5649 5650 5645 5640 5651 5657 5653 5650 5647 5645 5640 5636 5634 5631 5627 5623 5619 5615 5612 5611 5611 5611 5611 5611 5611 5611 5611 5611 5610 5610 5610 5610 5609 5608 5606
5654 5642 5631 5627 5634 5624 5647 5663 5659 5652 5654 5653 5653 5655 5654 5652 5652 5649 5645 5641 5637 5634 5630 5626 5622 5617 5614 5611 5608 5607 5606 5605 5604 5604 5604 5603 5603 5602 5601 5601 5601 5599 5598 5597
5659 5644 5627 5618 5619 5628 5648 5662 5658 5648 5649 5659 5653 5654 5653 5650 5646 5644 5646 5643 5639 5636 5631 5626 5622 5617 5612 5608 5606 5603 5601 5599 5598 5598 5598 5597 5596 5596 5595 5594 5592 5591 5589 5587
5651 5645 5631 5617 5617 5618 5645 5665 5666 5653 5642 5660 5654 5652 5647 5638 5630 5638 5649 5644 5640 5636 5631 5626 5621 5615 5610 5607 5603 5600 5597 5595 5594 5594 5593 5592 5591 5590 5588 5586 5585 5583 5582 5580
5646 5637 5628 5619 5614 5629 5655 5663 5657 5634 5638 5660 5655 5651 5643 5637 5642 5647 5648 5643 5639 5635 5630 5626 5620 5614 5610 5606 5601 5598 5595 5593 5593 5591 5590 5588 5586 5585 5583 5581 5579 5577 5576 5574
5643 5632 5625 5617 5612 5626 5661 5656 5644 5646 5657 5657 5655 5651 5644 5643 5645 5642 5640 5638 5635 5631 5628 5623 5618 5613 5609 5604 5600 5596 5594 5593 5591 5589 5586 5584 5582 5581 5579 5577 5575 5573 5571 5569
5641 5640 5634 5632 5639 5655 5659 5656 5658 5656 5652 5654 5652 5652 5647 5643 5641 5638 5636 5633 5631 5628 5625 5621 5616 5612 5607 5603 5600 5596 5594 5591 5588 5586 5583 5581 5579 5577 5575 5573 5570 5568 5566 5564
5645 5644 5635 5634 5645 5652 5655 5656 5657 5656 5653 5656 5654 5652 5646 5641 5641 5637 5633 5630 5627 5625 5622 5618 5613 5609 5605 5602 5599 5597 5594 5590 5586 5583 5580 5577 5575 5572 5570 5569 5567 5565 5562 5560
5640 5641 5632 5633 5643 5646 5652 5654 5657 5657 5654 5652 5652 5649 5646 5641 5639 5636 5632 5629 5626 5623 5620 5615 5611 5609 5606 5602 5599 5596 5592 5589 5585 5581 5578 5574 5572 5569 5566 5564 5563 5562 5560 5558
5635 5634 5630 5637 5647 5641 5646 5653 5654 5650 5649 5650 5648 5647 5646 5642 5640 5637 5633 5630 5626 5622 5617 5613 5609 5607 5604 5600 5597 5594 5591 5588 5584 5580 5576 5572 5569 5566 5563 5561 5557 5556 5555 5554